ARIANE 5 R/B, 40942

Orbit data source: Space-Track

ARIANE 5 R/B, 40942 is space debris in HEO originally from a launch on Wed, 30 Sep 2015 UTC launched from the French Guiana (FRGUI). Debris objects in space refer to the collection of defunct objects orbiting the Earth. Examples of debris include non-operational satellites, rocket bodies, and fragments generated from explosions, collisions, or faulty payload assembly.

Loading next visibility...
Identifier
40942, 2015-054C
Orbit
HEO
Country
Flag of FRFR
Related business
Manufacturer
Airbus Safran
Mission
Spacecraft
Bus & Motor
ESC-A, Unknown motor
Mass
~5,000 kg wet, ~5,000 kg dry
Launch date (UTC)
2015-09-30 (10 years ago)
Launch vehicle
Unknown
Launch site
French Guiana (FRGUI)
Object type
Payload
Rocket body
Debris
Shape & HBR
Cyl + 1 Nozzle, 3.5 m
Radar Cross Section
41.627 m², Large (>1 m²)

Expand to show TLE details & history
Last TLE update: 19 hours ago

TLE from 19 hours ago
0 ARIANE 5 R/B
1 40942U 15054C   26061.85984092  .00008898  00000-0  78504-3 0  9994
2 40942   6.2555 135.1973 6819657 144.2502 290.2750  2.90752700 96173
Epoch: 2026-03-02T20:38Z
TLE epoch observation values (Epoch: 2026-03-02T20:38:10.255Z)
Latitude
0.00013°
Longitude
24.91541°
Altitude
18,519.879 km
Speed
3.577 km/s
True Right ascension
09h 00m 25s
True Declination
0° 00' 00"
Sunlit
Object was in daylight at epoch
Visualization orbit readout
Latitude
Unknown
Longitude
Unknown
Altitude
Unknown
Speed
Unknown
Apparent Right ascension
Unknown
Apparent Declination
Unknown
Sunlit
N/A
Visualization observer readout
Local Sidereal Time
19:01:04
Azimuth
Unknown
Elevation
Unknown
Doppler factor
Unknown
Orbital elements
Apogee altitude
28,507.642 km
Perigee altitude
218.237 km
Semi-major axis
20,741.076 km
Eccentricity
0.68197
Inclination
6.2555°
RAAN
135.1973°
Arg. of periapsis
144.2502°
True anomaly
215.62615°
Mean anomaly
290.275°
Eccentric anomaly
252.92381°
Mean motion
0.7266 °/min
Orbital period
495.46 mins
BSTAR
0.00078504
Loading maneuver chart data...
Computing Atmospheric mass density...
Loading historical data...
Loading historical data...
Loading historical data...
Loading historical data...
Loading historical data...
Loading historical data...
Loading historical data...
Other satellites on launch #54 in the year 2015 (2015-09-30 UTC)

Documentation

Showing up to 5 results
|